Date String (YYYY-MM-DD hh:mm:ss) UTC,Instrument flags,absolute air pressure of the measurement (hPa),sample flow rate (lpm),inlet stack bypass flow (lpm),air temperature of the measurement (°C),ambient temperature measured by the external sensor (°C),aerosol sample conditioner tube jacket temperature (°C),OPC LED temperature (°C),internal box temperature (°C),relative humidity of the measurement (%),span deviation,mass concentration of particles derived from Lorenz-Mie calculation of OPC scattering (μg/m³),mass concentration of particles derived from Lorenz-Mie calculation of OPC scattering (μg/m³),mass concentration of particles derived from Lorenz-Mie calculation of OPC scattering (μg/m³)
DateTimeUTC,F1_M11,P_M11,Q1_M11,Q2_M11,T1_M11,T2_M11,T3_M11,T4_M11,T5_M11,U1_M11,ZSPAN_M11,X0_M11,X2_M11,X1_M11
2023-11-23 13:00:00,SystemResetWarning,0831.1,4.99,000.00,024.0,023.0,000.0,032.3,025.2,11.6,0000.0,0009.21,0002.84,0001.71
2023-11-23 13:01:00,SystemResetWarning,0831.2,4.99,000.00,024.0,023.0,000.0,032.3,025.2,11.6,0000.0,0009.50,0002.81,0001.71
2023-11-23 13:02:00,SystemResetWarning,0831.1,5.00,000.00,024.0,023.0,000.0,032.3,025.2,11.7,0000.0,0009.91,0002.82,0001.72
2023-11-23 13:03:00,SystemResetWarning,0831.1,5.01,000.00,024.0,023.0,000.0,032.3,025.2,11.7,0000.0,0009.79,0002.80,0001.72
2023-11-23 13:04:00,SystemResetWarning,0831.2,5.00,000.00,024.0,023.0,000.0,032.3,025.2,11.6,0000.0,0009.69,0002.76,0001.70
2023-11-23 13:05:00,SystemResetWarning,0831.1,5.00,000.00,024.0,023.0,000.0,032.3,025.2,11.7,0000.0,0008.93,0002.79,0001.69
2023-11-23 13:06:00,SystemResetWarning,0831.2,4.99,000.00,024.0,023.0,000.0,032.3,025.1,11.7,0000.0,0008.70,0002.78,0001.69
2023-11-23 13:07:00,SystemResetWarning,0831.2,5.00,000.00,024.0,023.0,000.0,032.3,025.2,11.7,0000.0,0008.69,0002.72,0001.69
2023-11-23 13:08:00,SystemResetWarning,0831.2,5.00,000.00,024.0,023.0,000.0,032.3,025.2,11.7,0000.0,0008.64,0002.70,0001.70
2023-11-23 13:09:00,SystemResetWarning,0831.2,5.00,000.00,024.0,023.0,000.0,032.3,025.2,11.7,0000.0,0008.39,0002.72,0001.69
2023-11-23 13:10:00,SystemResetWarning,0831.3,5.00,000.00,024.0,023.0,000.0,032.3,025.2,11.7,0000.0,0008.40,0002.74,0001.68
2023-11-23 13:11:00,SystemResetWarning,0831.3,5.00,000.00,024.0,023.0,000.0,032.3,025.2,11.7,0000.0,0008.12,0002.76,0001.68
2023-11-23 13:12:00,SystemResetWarning,0831.3,5.00,000.00,023.9,023.0,000.0,032.3,025.1,11.7,0000.0,0007.71,0002.78,0001.68
2023-11-23 13:13:00,SystemResetWarning,0831.3,5.01,000.00,023.9,023.0,000.0,032.3,025.1,11.7,0000.0,0007.00,0002.81,0001.67
2023-11-23 13:14:00,SystemResetWarning,0831.3,5.00,000.00,023.9,023.0,000.0,032.3,025.1,11.7,0000.0,0007.60,0002.89,0001.66
2023-11-23 13:15:00,SystemResetWarning,0831.3,5.01,000.00,023.9,023.0,000.0,032.3,025.2,11.7,0000.0,0007.66,0002.92,0001.66
2023-11-23 13:16:00,SystemResetWarning,0831.3,5.00,000.00,023.9,023.0,000.0,032.3,025.1,11.7,0000.0,0007.87,0002.88,0001.66
2023-11-23 13:17:00,SystemResetWarning,0831.4,5.00,000.00,023.9,023.0,000.0,032.3,025.1,11.7,0000.0,0008.20,0002.91,0001.68
2023-11-23 13:18:00,SystemResetWarning,0831.4,4.99,000.00,023.9,023.0,000.0,032.3,025.1,11.7,0000.0,0007.87,0002.93,0001.69
2023-11-23 13:19:00,SystemResetWarning,0831.4,5.00,000.00,023.9,023.0,000.0,032.2,025.1,11.7,0000.0,0008.37,0002.98,0001.69
2023-11-23 13:20:00,SystemResetWarning,0831.4,4.99,000.00,023.9,023.0,000.0,032.2,025.1,11.8,0000.0,0008.75,0002.98,0001.69
2023-11-23 13:21:00,SystemResetWarning,0831.4,5.00,000.00,023.9,023.0,000.0,032.2,025.1,11.8,0000.0,0009.52,0002.98,0001.69
2023-11-23 13:22:00,SystemResetWarning,0831.4,5.00,000.00,023.9,023.0,000.0,032.2,025.1,11.8,0000.0,0009.89,0003.04,0001.69
2023-11-23 13:23:00,SystemResetWarning,0831.4,5.00,000.00,023.9,022.9,000.0,032.2,025.1,11.8,0000.0,0010.93,0003.04,0001.69
2023-11-23 13:24:00,SystemResetWarning,0831.4,5.00,000.00,023.9,022.9,000.0,032.2,025.1,11.8,0000.0,0011.22,0002.99,0001.68
2023-11-23 13:25:00,SystemResetWarning,0831.4,5.00,000.00,023.9,022.9,000.0,032.2,025.1,11.8,0000.0,0010.76,0002.92,0001.67
2023-11-23 13:26:00,SystemResetWarning,0831.5,5.00,000.00,023.9,022.9,000.0,032.2,025.1,11.9,0000.0,0011.58,0002.93,0001.67
2023-11-23 13:27:00,SystemResetWarning,0831.4,5.01,000.00,023.9,022.9,000.0,032.2,025.1,11.9,0000.0,0012.27,0002.93,0001.66
2023-11-23 13:28:00,SystemResetWarning,0831.4,5.00,000.00,023.9,022.9,000.0,032.2,025.1,11.8,0000.0,0011.91,0002.91,0001.64
2023-11-23 13:29:00,SystemResetWarning,0831.5,5.00,000.00,023.9,022.9,000.0,032.2,025.1,11.8,0000.0,0011.91,0002.92,0001.63
2023-11-23 13:30:00,SystemResetWarning,0831.4,5.00,000.00,023.9,022.9,000.0,032.2,025.1,11.9,0000.0,0011.73,0002.90,0001.61
2023-11-23 13:31:00,SystemResetWarning,0831.4,5.00,000.00,023.9,022.9,000.0,032.2,025.1,11.9,0000.0,0011.16,0002.99,0001.61
2023-11-23 13:32:00,SystemResetWarning,0831.5,5.00,000.00,023.9,022.9,000.0,032.2,025.1,11.9,0000.0,0010.57,0003.02,0001.62
2023-11-23 13:33:00,SystemResetWarning,0831.5,4.99,000.00,023.9,022.9,000.0,032.2,025.1,11.9,0000.0,0010.10,0002.95,0001.62
2023-11-23 13:34:00,SystemResetWarning,0831.5,4.99,000.00,023.9,022.9,000.0,032.2,025.1,11.9,0000.0,0009.10,0002.94,0001.62
2023-11-23 13:35:00,SystemResetWarning,0831.5,5.01,000.00,023.9,022.9,000.0,032.2,025.1,11.9,0000.0,0008.63,0002.99,0001.63
2023-11-23 13:36:00,SystemResetWarning,0831.5,5.01,000.00,023.9,022.9,000.0,032.2,025.1,11.9,0000.0,0008.63,0002.94,0001.64
2023-11-23 13:37:00,SystemResetWarning,0831.5,5.00,000.00,023.8,022.9,000.0,032.2,025.1,12.0,0000.0,0008.05,0002.90,0001.65
2023-11-23 13:38:00,SystemResetWarning,0831.6,5.00,000.00,023.9,022.9,000.0,032.2,025.1,12.0,0000.0,0007.26,0002.90,0001.65
2023-11-23 13:39:00,SystemResetWarning,0831.6,4.99,000.00,023.8,022.9,000.0,032.2,025.1,12.0,0000.0,0007.28,0002.99,0001.66
2023-11-23 13:40:00,SystemResetWarning,0831.6,5.00,000.00,023.9,022.9,000.0,032.2,025.1,12.0,0000.0,0007.18,0002.92,0001.65
2023-11-23 13:41:00,SystemResetWarning,0831.6,5.00,000.00,023.8,022.9,000.0,032.2,025.1,12.0,0000.0,0007.30,0002.95,0001.65
2023-11-23 13:42:00,SystemResetWarning,0831.7,5.00,000.00,023.8,022.9,000.0,032.2,025.1,12.0,0000.0,0007.44,0002.96,0001.65
2023-11-23 13:43:00,SystemResetWarning,0831.7,5.00,000.00,023.8,022.9,000.0,032.2,025.1,12.0,0000.0,0007.63,0002.89,0001.64
2023-11-23 13:44:00,SystemResetWarning,0831.7,5.00,000.00,023.8,022.9,000.0,032.2,025.0,12.0,0000.0,0008.06,0002.89,0001.63
2023-11-23 13:45:00,SystemResetWarning,0831.7,5.00,000.00,023.8,022.9,000.0,032.2,025.0,12.0,0000.0,0008.60,0002.89,0001.62
2023-11-23 13:46:00,SystemResetWarning,0831.7,5.00,000.00,023.8,022.9,000.0,032.2,025.0,12.0,0000.0,0009.09,0002.84,0001.61
2023-11-23 13:47:00,SystemResetWarning,0831.7,5.00,000.00,023.8,022.9,000.0,032.2,025.0,12.0,0000.0,0009.17,0002.84,0001.60
2023-11-23 13:48:00,SystemResetWarning,0831.7,5.00,000.00,023.8,022.9,000.0,032.2,025.0,12.0,0000.0,0009.96,0002.91,0001.59
2023-11-23 13:49:00,SystemResetWarning,0831.7,5.00,000.00,023.8,022.9,000.0,032.1,025.0,12.0,0000.0,0009.62,0002.91,0001.59
2023-11-23 13:50:00,SystemResetWarning,0831.7,5.00,000.00,023.8,022.9,000.0,032.1,025.0,12.0,0000.0,0009.82,0002.86,0001.59
2023-11-23 13:51:00,SystemResetWarning,0832.0,5.00,000.00,023.8,022.9,000.0,032.1,025.0,12.0,0000.0,0009.87,0002.86,0001.60
2023-11-23 13:52:00,SystemResetWarning,0832.2,5.00,000.00,023.8,022.9,000.0,032.1,025.0,12.0,0000.0,0009.76,0002.85,0001.60
2023-11-23 13:53:00,SystemResetWarning,0832.0,5.01,000.00,023.8,022.8,000.0,032.1,025.0,12.1,0000.0,0009.69,0002.77,0001.60
2023-11-23 13:54:00,SystemResetWarning,0831.7,5.00,000.00,023.8,022.8,000.0,032.1,025.0,12.1,0000.0,0010.02,0002.77,0001.60
2023-11-23 13:55:00,SystemResetWarning,0831.7,5.00,000.00,023.8,022.8,000.0,032.1,025.0,12.0,0000.0,0009.55,0002.70,0001.60
2023-11-23 13:56:00,SystemResetWarning,0831.7,5.00,000.00,023.8,022.8,000.0,032.1,025.0,12.0,0000.0,0009.34,0002.62,0001.59
2023-11-23 13:57:00,SystemResetWarning,0831.7,5.00,000.00,023.8,022.8,000.0,032.1,025.0,12.0,0000.0,0008.70,0002.64,0001.60
2023-11-23 13:58:00,SystemResetWarning,0831.7,5.00,000.00,023.8,022.8,000.0,032.1,025.0,12.0,0000.0,0009.16,0002.69,0001.61
2023-11-23 13:59:00,SystemResetWarning,0831.7,4.99,000.00,023.8,022.8,000.0,032.1,025.0,12.0,0000.0,0008.73,0002.66,0001.62
